Preview of NWS' New Version of Forecast
This preview is not operational and should not be used for support decisions.

Regional Weather Roundup (RWR)

Issued by National Weather Service (NWS)

                            
000
ASUS45 KCYS 240810
RWRWY 

WYOMING REGIONAL WEATHER ROUNDUP
NATIONAL WEATHER SERVICE CHEYENNE WY
200 AM MDT MON JUN 24 2019

NOTE:  "FAIR" INDICATES FEW OR NO CLOUDS BELOW 12,000 FEET
WITH NO SIGNIFICANT WEATHER AND/OR OBSTRUCTIONS TO VISIBILITY.

WYZ001-240900-
YELLOWSTONE NATIONAL PARK
  
CITY           SKY/WX    TMP DP  RH WIND       PRES   REMARKS
LK YELLOWSTONE   N/A     44  31  60 W8        30.05F                  
W YELLOWSTONE  NOT AVBL                                               

$$
WYZ002>013-054>058-071-098>099-240900-
NORTHERN WYOMING
  
CITY           SKY/WX    TMP DP  RH WIND       PRES   REMARKS
JACKSON        FAIR      50  32  50 SW13      30.01S                  
CODY           CLOUDY    55  40  56 CALM      29.92S                  
GREYBULL       CLOUDY    61  44  53 CALM      29.84F                  
WORLAND        CLOUDY    58  41  53 SE6       29.85F                  
SHERIDAN       LGT RAIN  55  48  77 SE5       29.86F                  
BUFFALO        FAIR      56  42  59 CALM      29.91F                  
GILLETTE       CLOUDY    52  47  83 SE5       29.88S                  
HULETT         FAIR      52  46  82 SW9       29.88                   
NEWCASTLE      FAIR      48  41  76 E6        29.91                   

$$
WYZ014>020-022>026-101>103-240900-
CENTRAL WYOMING
  
CITY           SKY/WX    TMP DP  RH WIND       PRES   REMARKS
BIG PINEY      FAIR      42  33  70 S8        30.07F                  
PINEDALE       PTSUNNY   43  34  70 CALM      30.08                   
DUBOIS         FAIR      45  34  65 NW9       30.01                   
LANDER         FAIR      58  34  40 SW9       29.91F                  
RIVERTON       FAIR      57  35  43 S3        29.93F                  
CASPER         MOCLDY    52  45  77 NW6       29.94S                  
DOUGLAS        FAIR      49  46  90 CALM      29.93S                  

$$
WYZ021-027>030-104>119-240900-
SOUTHERN WYOMING
  
CITY           SKY/WX    TMP DP  RH WIND       PRES   REMARKS
EVANSTON       FAIR      48  29  47 SW12      30.10F                  
KEMMERER       FAIR      45  30  57 SW6       30.10                   
ROCK SPRINGS   FAIR      53  28  38 SW14      30.07F                  
DIXON          CLOUDY    48  39  70 E13G18    30.12F                  
RAWLINS        FAIR      52  34  50 SW15      30.05F                  
SARATOGA       FAIR      43  36  75 CALM      30.09S                  
LARAMIE        FAIR      42  35  76 W9        30.07F                  
CHEYENNE         N/A    N/A N/A N/A MISG        N/A                   
TORRINGTON     FAIR      47  45  93 SE6       29.89F                  
PINE BLUFFS    FAIR      46  46 100 S9        29.98F                  

$$